User: anonymous   Login
Location: ?????
(30.2541°N, 31.0910°E)
Time: 07:30:42
(UTC+00:00)
Language:

USA 307 - Orbit

View from above orbital plane
View from above orbital plane
View from above satellite
View from above satellite

Ground track
Ground track

The orbit data is extracted from the following two-line orbital elements,

1 45875U 20046C   23017.69087510 0.00064617  00000-0  34355-2 0    09
2 45875  53.9765 253.3538 0005409 224.3371 135.6218 15.14781408    00
Epoch (UTC): 17 January 2023 16:34:51
Eccentricity: 0.0005409
inclination: 53.9765°
perigee height: 518 km
apogee height: 525 km
right ascension of ascending node: 253.3538°
argument of perigee: 224.3371°
revolutions per day: 15.14781408
mean anomaly at epoch: 135.6218°
orbit number at epoch: 0

The dashed part of the orbit path shows where the satellite is in the earth's shadow,  

DLR